Back to catalog

POLYTECH UNIVERSE-5

AliveScienceSSO
NORAD 61745·PAYLOAD·🇷🇺 Russia

Launched Nov 4, 2024 from Vostochny Cosmodrome

Loading…

Next Passes (next 24 hours)

TLE

FreshSource: Space-Track

Epoch: Sep 14, 2026, 14:38 UTC

1 61745U 24199L   26257.61020389  .00082914  00000-0  60105-3 0  9998
2 61745  97.2756 138.6036 0000772 308.1864  51.9331 15.73176158151681

Track POLYTECH UNIVERSE-5 in real time with AllMySat

Download on the App Store